Weather History for KMIA - May, 2014

Change the Weather History Date:

Monday, May 5, 2014

  Actual Average Record
Temperature  
Mean Temperature 78 °F 78 °F  
Max Temperature 86 °F 86 °F 91 °F (2006)
Min Temperature 70 °F 71 °F 50 °F (1921)
Degree Days  
Heating Degree Days 0 0  
Month to date heating degree days 0 0  
Since 1 July heating degree days 61 128  
Cooling Degree Days 13 13  
Month to date cooling degree days 78 65  
Year to date cooling degree days 1159 958  
Growing Degree Days 28 (Base 50)    
Moisture  
Dew Point 60 °F    
Average Humidity 55    
Maximum Humidity 78    
Minimum Humidity 32    
Precipitation  
Precipitation 0.00 in 0.11 in 2.01 in (1929)
Month to date precipitation 0.29 0.53  
Year to date precipitation 7.15 10.54  
Snow  
Snow 0.00 in - - ()
Month to date snowfall 0.0  
Since 1 July snowfall 0.0  
Snow Depth 0.00 in    
Sea Level Pressure  
Sea Level Pressure 30.04 in    
Wind  
Wind Speed 8 mph (NE)    
Max Wind Speed 17 mph    
Max Gust Speed 24 mph    
Visibility 10 miles    
Events      
T = Trace of Precipitation, MM = Missing Value Source: NWS Daily Summary

Daily Weather History Graph

Daily Weather History Graph

Search for Another Location

Airport or City:

Trip Planner

Search our weather history database for the weather conditions in past years. The results will help you decide how hot, cold, wet, or windy it might be!

Date:

Astronomy

May. 05, 2014 Rise Set
Actual Time 6:41 AM EDT 7:54 PM EDT
Civil Twilight 6:17 AM EDT 8:19 PM EDT
Nautical Twilight 5:48 AM EDT 8:48 PM EDT
Astronomical Twilight 5:18 AM EDT 9:18 PM EDT
Moon 11:57 AM EDT (5/5) 12:38 AM EDT (5/5)
Length of Visible Light 14h 01m
Length of Day
13h 13m
Waxing Crescent, 36% of the Moon is Illuminated
May 5
Waxing Crescent
May 6
First Quarter
May 14
Full
May 21
Last Quarter
May 28
New

Hourly Weather History & Observations

Time (EDT) Temp. Heat Index Dew Point Humidity Pressure Visibility Wind Dir Wind Speed Gust Speed Precip Events Conditions
12:53 AM 73.0 °F - 63.0 °F 71% 30.06 in 10.0 mi North 4.6 mph - N/A   Clear
1:53 AM 73.4 °F - 60.8 °F 65% 30.05 in 10.0 mi NNW 3.5 mph - N/A   Partly Cloudy
2:53 AM 73.0 °F - 61.0 °F 66% 30.04 in 10.0 mi NNW 5.8 mph - N/A   Clear
3:53 AM 72.0 °F - 61.0 °F 68% 30.05 in 10.0 mi NNW 4.6 mph - N/A   Clear
4:53 AM 71.1 °F - 61.0 °F 70% 30.04 in 10.0 mi NNW 3.5 mph - N/A   Clear
5:53 AM 70.0 °F - 61.0 °F 73% 30.04 in 10.0 mi NW 3.5 mph - N/A   Clear
6:53 AM 70.0 °F - 62.1 °F 76% 30.05 in 10.0 mi NNW 3.5 mph - N/A   Partly Cloudy
7:53 AM 73.0 °F - 63.0 °F 71% 30.06 in 10.0 mi North 6.9 mph - N/A   Partly Cloudy
8:53 AM 77.0 °F - 64.0 °F 64% 30.06 in 10.0 mi Variable 3.5 mph - N/A   Partly Cloudy
9:53 AM 80.1 °F 81.5 °F 63.0 °F 56% 30.06 in 10.0 mi NE 9.2 mph - N/A   Partly Cloudy
10:53 AM 82.0 °F 82.7 °F 61.0 °F 49% 30.06 in 10.0 mi NNE 12.7 mph 18.4 mph N/A   Partly Cloudy
11:53 AM 84.0 °F 84.5 °F 62.1 °F 47% 30.06 in 10.0 mi ENE 13.8 mph 18.4 mph N/A   Partly Cloudy
12:53 PM 84.0 °F 83.3 °F 57.0 °F 40% 30.05 in 10.0 mi ENE 11.5 mph - N/A   Partly Cloudy
1:53 PM 86.0 °F 84.2 °F 53.6 °F 33% 30.04 in 10.0 mi ENE 16.1 mph 20.7 mph N/A   Partly Cloudy
2:53 PM 84.9 °F 83.3 °F 54.0 °F 34% 30.02 in 10.0 mi NE 15.0 mph - N/A   Partly Cloudy
3:53 PM 84.0 °F 83.5 °F 57.9 °F 41% 30.01 in 10.0 mi ENE 9.2 mph 19.6 mph N/A   Partly Cloudy
4:53 PM 82.9 °F 83.2 °F 60.1 °F 46% 30.00 in 10.0 mi East 12.7 mph - N/A   Partly Cloudy
5:53 PM 82.9 °F 82.6 °F 57.9 °F 42% 29.99 in 10.0 mi ENE 12.7 mph - N/A   Partly Cloudy
6:53 PM 81.0 °F 81.0 °F 57.0 °F 44% 29.99 in 10.0 mi NE 10.4 mph - N/A   Partly Cloudy
7:53 PM 78.1 °F - 59.0 °F 52% 30.00 in 10.0 mi NE 8.1 mph - N/A   Partly Cloudy
8:53 PM 77.0 °F - 60.1 °F 56% 30.01 in 10.0 mi East 9.2 mph - N/A   Clear
9:53 PM 77.0 °F - 62.1 °F 60% 30.03 in 10.0 mi East 8.1 mph - N/A   Clear
10:53 PM 77.0 °F - 62.1 °F 60% 30.03 in 10.0 mi ENE 5.8 mph - N/A   Partly Cloudy
11:53 PM 75.2 °F - 62.6 °F 65% 30.04 in 10.0 mi East 6.9 mph - N/A   Partly Cloudy